Бузовна

Азербайджан     40°31′03″N   50°06′45″E
темп.,
°C
ветер,
м/с
пор.,
м/с
влажн.,
%
обл.,
%
осадки,
мм/ч
давл.,
гПа
погр.,
м
11 мая, вт
вт1101:00+13ссз345724 0.0 1021356
04:00+12всв01562 0.0 1021140
07:00+13ююз12530 0.0 1021295
10:00+15ю33420 0.0 1020841
13:00+17ю66350 0.0 1018959
16:00+17ю77390 0.0 1016728
19:00+16ю810530 0.0 1016554
22:00+15ююз67660 0.0 1016330
12 мая, ср
ср1201:00+15ююз567399 0.0 1016339
04:00+15юз13750 0.0 1016249
07:00+15зюз12736 0.0 1016251
10:00+17ююз45652 0.0 1016651
13:00+20ю56560 0.0 1016707
16:00+21ю44520 0.0 1015618
19:00+19зюз33591 0.0 1015560
22:00+16сз55730 0.0 1016265
13 мая, чт
чт1301:00+15с45775 0.0 1016262
04:00+15с4579100 0.0 1015229
07:00+15сз227461 0.0 1016173
10:00+20ю33545 0.0 1016417
13:00+23ю34450 0.0 1015407
16:00+25ю44420 0.0 1014427
19:00+22ю55510 0.0 1014272
22:00+20ююз56640 0.0 1015179
14 мая, пт
пт1401:00+20ююз23654 0.0 101472
04:00+20ююв22640 0.0 101437
07:00+20ююз45640 0.0 1015100
10:00+25ю34400 0.0 1016251
13:00+28ю43300 0.0 1015524
16:00+29юв55280 0.0 1015667
19:00+27ююв46250 0.0 1015398
22:00+24ю23350 0.0 1015123
15 мая, сб
сб1501:00+23ююз22403 0.0 101454
04:00+22ююз11355 0.0 101411
07:00+23ююз22290 0.0 101434
10:00+27ююв23190 0.0 1015371
13:00+29ю44170 0.0 1015713
16:00+28ю54200 0.0 1014653
19:00
22:00+26ююз23180 0.0 1015107